Total_Precipitation_Accumulation
1.57 1.53 1.13 0.66 0.50 0.40 0.38 0.43 0.40 0.36 0.33 0.44 0.46 0.46 0.46 0.42 0.35 0.34 0.36 0.39 0.42 0.48 0.60 0.75 0.88 1.11 1.31 1.45 1.61 1.61 1.66 1.75 1.77 1.76 1.63 1.42 1.20 1.09 1.04 0.97 0.92 0.81 0.68 0.58
1.47 1.13 0.63 0.49 0.50 0.48 0.46 0.48 0.41 0.37 0.33 0.39 0.41 0.41 0.45 0.48 0.43 0.35 0.31 0.32 0.35 0.47 0.52 0.59 0.72 0.92 1.09 1.20 1.31 1.42 1.46 1.56 1.62 1.59 1.55 1.54 1.56 1.40 1.25 1.13 1.01 0.92 0.87 0.80
1.07 0.67 0.46 0.53 0.59 0.61 0.53 0.48 0.41 0.38 0.35 0.40 0.40 0.43 0.42 0.43 0.44 0.39 0.34 0.33 0.35 0.47 0.48 0.51 0.58 0.78 0.88 0.97 1.09 1.17 1.27 1.35 1.36 1.49 1.59 1.62 1.63 1.56 1.31 1.08 0.94 0.96 1.01 1.00
0.93 0.53 0.53 0.66 0.60 0.58 0.60 0.40 0.39 0.38 0.49 0.56 0.40 0.51 0.40 0.38 0.41 0.41 0.37 0.36 0.39 0.45 0.47 0.51 0.55 0.66 0.72 0.77 0.91 1.01 1.10 1.20 1.22 1.34 1.37 1.31 1.19 1.16 1.09 1.03 1.02 1.07 1.10 1.10
0.94 0.58 0.60 0.72 0.53 0.50 0.51 0.39 0.46 0.48 0.51 0.51 0.34 0.42 0.43 0.38 0.46 0.47 0.42 0.43 0.45 0.43 0.41 0.50 0.54 0.56 0.61 0.62 0.67 0.81 0.96 1.02 1.04 1.10 1.16 1.23 1.17 1.11 1.13 1.12 1.04 0.99 0.97 1.02
0.71 0.60 0.66 0.62 0.47 0.49 0.50 0.60 0.66 0.65 0.75 0.70 0.31 0.33 0.39 0.40 0.49 0.48 0.39 0.41 0.43 0.42 0.44 0.46 0.42 0.46 0.57 0.53 0.50 0.60 0.73 0.90 0.97 1.00 1.05 1.10 1.08 1.02 1.00 1.04 1.02 1.01 0.95 0.90
0.90 0.71 0.62 0.64 0.78 0.76 0.78 1.11 1.37 1.22 1.05 0.58 0.21 0.25 0.37 0.38 0.41 0.44 0.41 0.36 0.37 0.39 0.39 0.40 0.39 0.46 0.50 0.47 0.44 0.47 0.54 0.69 0.82 0.85 0.87 0.93 1.03 1.03 0.94 0.92 0.96 0.95 0.91 0.87
0.94 0.84 0.56 0.64 0.90 0.94 0.80 0.97 1.12 0.84 0.53 0.28 0.17 0.23 0.31 0.31 0.33 0.33 0.28 0.27 0.31 0.32 0.30 0.31 0.32 0.34 0.32 0.30 0.34 0.40 0.45 0.49 0.55 0.60 0.67 0.76 0.85 0.92 0.86 0.80 0.80 0.78 0.74 0.76
0.68 0.62 0.39 0.45 0.60 0.72 0.77 0.75 0.63 0.73 0.49 0.31 0.20 0.19 0.23 0.23 0.23 0.23 0.22 0.24 0.26 0.25 0.22 0.22 0.23 0.23 0.20 0.21 0.24 0.28 0.31 0.34 0.38 0.40 0.46 0.54 0.61 0.71 0.79 0.77 0.76 0.73 0.72 0.68
0.58 0.70 0.45 0.48 0.70 0.79 0.76 0.63 0.70 1.06 0.77 0.42 0.19 0.15 0.22 0.23 0.23 0.23 0.22 0.21 0.20 0.18 0.18 0.19 0.20 0.19 0.15 0.14 0.15 0.16 0.19 0.25 0.28 0.30 0.33 0.38 0.47 0.54 0.63 0.67 0.67 0.65 0.63 0.62
0.53 0.80 0.62 0.63 0.80 0.75 0.72 0.81 0.82 0.82 0.61 0.51 0.32 0.20 0.19 0.21 0.22 0.22 0.20 0.18 0.16 0.15 0.16 0.16 0.16 0.14 0.14 0.12 0.12 0.14 0.18 0.22 0.24 0.25 0.28 0.31 0.37 0.43 0.48 0.51 0.53 0.54 0.55 0.56
0.46 0.82 0.71 0.52 0.45 0.49 0.59 0.59 0.70 0.91 0.65 0.50 0.41 0.24 0.16 0.16 0.18 0.19 0.18 0.17 0.16 0.16 0.15 0.13 0.11 0.11 0.12 0.13 0.14 0.15 0.19 0.21 0.23 0.24 0.26 0.28 0.32 0.36 0.39 0.43 0.43 0.45 0.48 0.48
0.47 0.82 0.87 0.64 0.56 0.61 0.67 0.54 0.55 0.81 1.02 0.78 0.57 0.26 0.12 0.12 0.13 0.15 0.16 0.17 0.17 0.18 0.18 0.16 0.12 0.10 0.11 0.13 0.14 0.14 0.17 0.20 0.21 0.22 0.23 0.23 0.23 0.25 0.28 0.34 0.38 0.40 0.46 0.50
0.70 0.86 0.77 0.61 0.55 0.62 0.59 0.47 0.59 1.13 1.33 0.72 0.35 0.17 0.10 0.11 0.16 0.16 0.17 0.17 0.19 0.21 0.20 0.20 0.20 0.15 0.14 0.13 0.11 0.11 0.12 0.15 0.18 0.19 0.20 0.19 0.20 0.21 0.23 0.26 0.30 0.34 0.39 0.45
0.68 0.91 0.66 0.40 0.32 0.49 0.50 0.48 0.58 0.85 0.81 0.73 0.35 0.19 0.14 0.16 0.22 0.20 0.17 0.15 0.16 0.18 0.19 0.20 0.21 0.20 0.17 0.14 0.12 0.10 0.10 0.12 0.14 0.16 0.17 0.18 0.19 0.20 0.22 0.24 0.27 0.30 0.34 0.39
0.51 0.74 0.69 0.46 0.29 0.40 0.46 0.43 0.45 0.50 0.52 0.51 0.37 0.29 0.19 0.19 0.21 0.19 0.16 0.14 0.14 0.15 0.17 0.18 0.17 0.18 0.16 0.15 0.14 0.13 0.13 0.12 0.14 0.16 0.16 0.16 0.18 0.18 0.21 0.24 0.27 0.28 0.32 0.38
0.38 0.60 0.78 0.53 0.32 0.41 0.47 0.41 0.43 0.42 0.39 0.41 0.43 0.34 0.25 0.25 0.23 0.20 0.17 0.14 0.13 0.11 0.11 0.14 0.15 0.16 0.15 0.14 0.13 0.12 0.13 0.13 0.14 0.15 0.16 0.17 0.19 0.21 0.22 0.26 0.30 0.36 0.41 0.49
0.23 0.49 0.76 0.53 0.38 0.50 0.37 0.30 0.32 0.35 0.34 0.36 0.34 0.26 0.22 0.22 0.22 0.21 0.16 0.13 0.10 0.08 0.06 0.07 0.10 0.10 0.10 0.09 0.10 0.11 0.10 0.12 0.13 0.16 0.20 0.22 0.23 0.30 0.36 0.36 0.39 0.46 0.52 0.59
0.11 0.36 0.64 0.52 0.39 0.27 0.20 0.20 0.23 0.31 0.34 0.30 0.23 0.17 0.15 0.17 0.21 0.21 0.17 0.13 0.09 0.07 0.07 0.07 0.08 0.10 0.10 0.10 0.11 0.12 0.13 0.14 0.15 0.18 0.23 0.26 0.28 0.37 0.46 0.46 0.48 0.52 0.57 0.63
0.09 0.24 0.55 0.48 0.41 0.21 0.13 0.08 0.10 0.20 0.32 0.22 0.19 0.18 0.18 0.19 0.23 0.21 0.16 0.14 0.13 0.12 0.10 0.10 0.11 0.12 0.14 0.16 0.17 0.17 0.19 0.24 0.27 0.28 0.32 0.37 0.43 0.50 0.54 0.54 0.53 0.50 0.48 0.50
0.16 0.29 0.42 0.37 0.34 0.09 0.05 0.05 0.07 0.21 0.26 0.13 0.13 0.15 0.18 0.18 0.17 0.16 0.12 0.11 0.14 0.15 0.15 0.14 0.15 0.17 0.19 0.19 0.21 0.22 0.25 0.33 0.39 0.42 0.45 0.45 0.49 0.51 0.51 0.49 0.45 0.40 0.34 0.32
0.08 0.14 0.15 0.18 0.25 0.13 0.06 0.07 0.11 0.15 0.11 0.11 0.14 0.16 0.16 0.16 0.13 0.12 0.14 0.12 0.11 0.11 0.13 0.15 0.17 0.19 0.22 0.25 0.29 0.30 0.32 0.38 0.40 0.42 0.42 0.40 0.38 0.38 0.39 0.38 0.36 0.31 0.27 0.25
0.06 0.08 0.09 0.10 0.11 0.09 0.08 0.08 0.08 0.07 0.08 0.08 0.11 0.13 0.13 0.13 0.13 0.11 0.10 0.10 0.10 0.10 0.12 0.15 0.19 0.22 0.25 0.26 0.29 0.31 0.31 0.30 0.31 0.32 0.32 0.29 0.25 0.24 0.25 0.25 0.25 0.25 0.23 0.21
0.10 0.08 0.09 0.07 0.05 0.04 0.05 0.05 0.06 0.05 0.04 0.03 0.04 0.07 0.11 0.13 0.13 0.12 0.09 0.08 0.08 0.08 0.09 0.12 0.13 0.15 0.17 0.17 0.19 0.21 0.20 0.19 0.19 0.19 0.21 0.21 0.19 0.18 0.18 0.19 0.21 0.21 0.21 0.20
0.12 0.11 0.10 0.08 0.05 0.05 0.05 0.04 0.04 0.03 0.02 0.02 0.02 0.03 0.05 0.08 0.08 0.09 0.09 0.08 0.08 0.08 0.08 0.09 0.09 0.09 0.11 0.11 0.11 0.11 0.11 0.11 0.13 0.14 0.15 0.16 0.17 0.18 0.18 0.20 0.22 0.24 0.25 0.27
0.03 0.06 0.09 0.09 0.06 0.06 0.05 0.04 0.04 0.03 0.03 0.02 0.03 0.03 0.04 0.05 0.05 0.05 0.05 0.05 0.06 0.07 0.08 0.08 0.08 0.09 0.12 0.11 0.10 0.10 0.09 0.09 0.11 0.13 0.14 0.16 0.17 0.17 0.18 0.20 0.21 0.25 0.26 0.28